カタログに戻る

COSMOS 375 DEB

運用中LEO
NORAD 4629·DEBRIS·🇷🇺 Russia

打ち上げ Oct 30, 1970 から Baikonur Cosmodrome

Loading…

次のパス (今後24時間)

TLE

最新Source: Space-Track

元期: Sep 14, 2026, 04:55 UTC

1 04629U 70091J   26257.20519547  .00000314  00000-0  12387-3 0  9995
2 04629  62.8369  72.4397 0971501  76.4106 294.3088 13.03275130641422

AllMySatでCOSMOS 375 DEBをリアルタイム追跡

Download on the App Store